sat.trackr.live / text

‹ back to catalog

STARLINK-34640

NORAD 65092 · 2025-167Q

PAYLOAD ACTIVE UNKNOWN

§ Identity

Operator
Country
US
Launch date
2025-08-04
Launch site
AFETR
Launch vehicle
Mass (kg)
RCS (m²)

Purposes: comms

External: N2YO · Heavens-Above · Gunter

§ Orbital elements

Epoch: 2026-09-20T05:04:43.122144Z

Period
94.01 min
Inclination
53.1594°
Eccentricity
0.0001857
Mean motion
15.31724423 rev/d
Perigee alt
469.4 km
Apogee alt
471.9 km
Semi-major
6,848.8 km
B*
4.3452e-4
RAAN
203.0050°
Arg perigee
85.7770°
Mean anomaly
274.3443°
Rev number
6,326

§ Raw data

STARLINK-346401 65092U 25167Q   26263.21161021  .00013153  00000+0  43452-3 0  99992 65092  53.1594 203.0050 0001857  85.7770 274.3443 15.31724423 63262

JSON: /api/v1/satellites/65092 · /tle

For live sub-satellite position, see the globe view (requires WebGL).

§ Visibility from observer

Set your observer location to see the next 7 days of passes ≥ 10°. The values pass through the URL so the page stays shareable.

No JS? Fill the form by hand. The geolocation button needs JavaScript.